This is the latest recevied weather packets stored in our database for station/object K8RLH. If no packets are shown the sender has not sent any weather packets the latest 10 day(s).
| Time | Temp. | Humidity | Pressure | Rain* | Wind** | Luminosity | Snow |
|---|---|---|---|---|---|---|---|
| 1777601852 | 18.33° C | 46% | 1014 hPa | 0 mm | - | 0 W/m² | - |
| 1777601547 | 18.33° C | 47% | 1013.9 hPa | 0 mm | - | 0 W/m² | - |
| 1777601243 | 18.33° C | 48% | 1013.8 hPa | 0 mm | - | 0 W/m² | - |
| 1777600941 | 18.89° C | 47% | 1014 hPa | 0 mm | - | 0 W/m² | - |
| 1777600636 | 18.89° C | 47% | 1013.6 hPa | 0 mm | - | 0 W/m² | - |
| 1777600333 | 18.89° C | 47% | 1013.6 hPa | 0 mm | - | 0 W/m² | - |
| 1777600028 | 18.89° C | 48% | 1013.5 hPa | 0 mm | - | 0 W/m² | - |
| 1777599724 | 18.33° C | 52% | 1013.5 hPa | 0 mm | - | 0 W/m² | - |
| 1777599420 | 18.33° C | 53% | 1013.5 hPa | 0 mm | - | 0 W/m² | - |
| 1777599118 | 18.89° C | 54% | 1013.5 hPa | 0 mm | - | 0 W/m² | - |
| 1777598816 | 18.89° C | 54% | 1013.5 hPa | 0 mm | - | 0 W/m² | - |
| 1777598515 | 18.89° C | 53% | 1013.4 hPa | 0 mm | - | 0 W/m² | - |
| 1777598210 | 19.44° C | 53% | 1013.2 hPa | 0 mm | - | 0 W/m² | - |
| 1777597908 | 19.44° C | 52% | 1013.2 hPa | 0 mm | - | 0 W/m² | - |
| 1777597604 | 20° C | 50% | 1013 hPa | 0 mm | - | 0 W/m² | - |
| 1777597300 | 20° C | 52% | 1012.8 hPa | 0 mm | - | 0 W/m² | - |
| 1777596995 | 20° C | 55% | 1013 hPa | 0 mm | - | 0 W/m² | - |
| 1777596692 | 20° C | 56% | 1012.8 hPa | 0 mm | - | 0 W/m² | - |
| 1777596389 | 20.56° C | 55% | 1012.5 hPa | 0 mm | - | 0 W/m² | - |
| 1777596086 | 20° C | 60% | 1012.5 hPa | 0 mm | - | 0 W/m² | - |
| 1777595782 | 20° C | 66% | 1012.6 hPa | 0 mm | - | 0 W/m² | - |
| 1777595477 | 20° C | 79% | 1012.4 hPa | 0 mm | - | 0 W/m² | - |
| 1777595174 | 20.56° C | 78% | 1012.2 hPa | 0 mm | - | 0 W/m² | - |
| 1777594870 | 20.56° C | 78% | 1012.2 hPa | 0 mm | - | 1 W/m² | - |
| 1777594566 | 20.56° C | 77% | 1011.9 hPa | 0 mm | - | 1 W/m² | - |
* Rain latest hour (hover to see other rain measurements)
** Current wind speed in m/s (hover to see current wind gust speed)